AirNav   Everest Fuels
 
 1396 users online  

GA39 Hodges Airpark
Savannah, Georgia, USA

GOING TO SAVANNAH?


FAA INFORMATION EFFECTIVE 25 FEBRUARY 2021

Location

FAA Identifier: GA39
Lat/Long: 31-59-03.7490N 081-14-46.4000W
31-59.062483N 081-14.773333W
31.9843747,-81.2462222
(estimated)
Elevation: 10 ft. / 3 m (estimated)
Variation: 04W (1985)
From city: 6 miles SW of SAVANNAH, GA
Time zone: UTC -5 (UTC -4 during Daylight Saving Time)
Zip code: 31419

Airport Operations

Airport use: Private use. Permission required prior to landing
Activation date: 01/1976
Control tower: no
ARTCC: JACKSONVILLE CENTER
FSS: MACON FLIGHT SERVICE STATION
Attendance: CONTINUOUS
Wind indicator: yes
Segmented circle: no

Airport Communications

WX ASOS at SAV (9 nm N): PHONE 912-966-0364

Nearby radio navigation aids

VOR radial/distance  VOR name  Freq  Var
SVNr255/5.6HUNTER VOR/DME111.6002W
SAVr200/10.0SAVANNAH VORTAC115.9506W

 
NDB name  Hdg/Dist  Freq  Var  ID
WASSA269/13.333504WSV ... ...-
MC INTOSH060/16.326304WMOQ -- --- --.-

Airport Services

Runway Information

Runway 12/30

Dimensions: 2640 x 60 ft. / 805 x 18 m
Surface: turf
RUNWAY 12  RUNWAY 30
Traffic pattern: rightright
Obstructions: 50 ft. trees50 ft. rr

Airport Ownership and Management from official FAA records

Ownership: Privately-owned
Owner: ROBERT J. HODGES
500 HINESVILLE ROAD
SAVANNAH, GA 31405
Phone 912-925-3664
Manager: ROBERT J. HODGES
500 HINESVILLE ROAD
SAVANNAH, GA 31405
Phone 912-925-3664
912-441-3790 CELL

Airport Operational Statistics

Aircraft based on the field: 21
Single engine airplanes: 18
Multi engine airplanes: 1
Ultralights: 2
    

Additional Remarks

FOR CD CTC SAVANNAH APCH AT 912-964-3205, WHEN APCH CLSD CTC JACKSONVILLE ARTCC AT 904-845-1592.

Instrument Procedures

There are no published instrument procedures at GA39.

Some nearby airports with instrument procedures:

KSVN - Hunter Army Airfield (5 nm E)
KSAV - Savannah/Hilton Head International Airport (9 nm N)
KLHW - Wright Army Airfield (Fort Stewart)/Midcoast Regional Airport (17 nm W)
KHXD - Hilton Head Airport (31 nm NE)
KCWV - Claxton-Evans County Airport (34 nm W)
 
Loc | Ops | Rwys | IFR | FBO | Links
Com | Nav | Svcs | Stats | Notes
Area around GA39 (Hodges Airpark)
 
Road maps at: MapQuest Bing Google
 
Aerial photo
WARNING: Photo may not be current or correct
Aerial photo of GA39 (Hodges Airpark)
Do you have a better or more recent aerial photo of Hodges Airpark that you would like to share? If so, please send us your photo.

 
Sectional chart

 
Airport distance calculator
Flying to Hodges Airpark? Find the distance to fly.

From to GA39

Sunrise and sunset
Times for 26-Feb-2021
 Local
(UTC-5)
 Zulu
(UTC)
Morning civil twilight06:3211:32
Sunrise06:5711:57
Sunset18:1923:19
Evening civil twilight18:4423:44

Current date and time
Zulu (UTC)  26-Feb-2021 19:26:22
Local (UTC-5)  26-Feb-2021 14:26:22
 
METAR
KSVN 
5nm E 
261856Z AUTO 20008KT 10SM CLR 26/12 A3011 RMK AO2 SLP199 T02600121 $
KSAV 
8nm N 
261853Z 18008KT 10SM FEW048 FEW250 28/11 A3014 RMK AO2 SLP206 T02780106
KLHW 
18nm SW 
261856Z AUTO 18006KT 10SM FEW070 SCT190 27/12 A3011 RMK AO2 SLP199 T02700115 $
TAF
KSVN 
5nm E 
252100Z 2521/2703 VRB06KT 9999 SCT050 QNH3005INS BECMG 2607/2608 09006KT 8000 BR SCT060 QNH3017INS BECMG 2614/2615 08009KT 9999 NSW SCT070 QNH3014INS TX28/2521Z TN12/2610Z
NOTAMs
Click for the latest NOTAMs
NOTAMs are issued by the DoD/FAA and will open in a separate window not controlled by AirNav.

 

 
 

Would you like to see your business listed on this page?

 If your business provides an interesting product or service to pilots, flight crews, aircraft, or users of the Hodges Airpark, you should consider listing it here.  To start the listing process, click on the button below
 
Add a business
 

Other Pages about Hodges Airpark

Update a link
 
Copyright © AirNav, LLC. All rights reserved. Privacy Policy  Contact